Flag for Canada Weather past 2 weeks in Chilliwack, British Columbia, Canada

Now
86 °F

Warm.


Feels Like: 86 °F
Forecast: 57 / 83 °F
Wind: 3 mph from West

Location: Agassiz

Current Time: Jul 29, 2014 at 6:30:15 PM

Latest Report: Jul 29, 2014 at 5:00 PM


Visibility: N/A

Pressure: 30.03 "Hg

Humidity: 46%

Dew point: 62 °F

Location of ChilliwackLocation

Historic Weather in Chilliwack — Graph

°F

Chilliwack temperature yesterday

Maximum temperature yesterday: 86 °F (at 5:00 PM)
Minimum temperature yesterday: 58 °F (at 1:00 AM)
Average temperature yesterday: 71 °F

Past Weeks' High & Low Weather Summary

 TemperatureHumidityPressure
High86 °F (Jul 15, 5:00 PM)100% (Jul 19, 10:00 AM)30.20 "Hg (Jul 19, 10:00 AM)
Low53 °F (Jul 22, 6:00 AM)44% (Jul 14, 6:00 PM)29.87 "Hg (Jul 16, 9:00 PM)
Average66 °F78%30.04 "Hg
* Reported Jul 14 5:00 PM — Jul 29 5:00 PM, Chilliwack, Weather by CustomWeather, © 2014

Note: Actual official high and low records may vary slightly from our data, if they occured in-between our weather recording intervals... More about our weather records

Advertising

Chilliwack weather history for previous 24 hours

 ConditionsComfort  
Time TempWeatherWind HumidityBarometerVisibility
5:00 PM
Jul 29
86 °FWarm.3 mph46%30.03 "HgN/A
4:00 PM85 °FWarm.3 mph45%30.05 "HgN/A
3:00 PM84 °FWarm.5 mph51%30.07 "HgN/A
2:00 PM82 °FWarm.6 mph49%30.09 "HgN/A
1:00 PM80 °FWarm.6 mph57%30.10 "HgN/A
12:00 PM79 °FWarm.2 mph58%30.11 "HgN/A
11:00 AM76 °FMild.2 mph56%30.11 "HgN/A
10:00 AM74 °FMild.1 mph66%30.11 "HgN/A
9:00 AM71 °FMild.1 mph69%30.12 "HgN/A
8:00 AM65 °FMild.1 mph82%30.12 "HgN/A
7:00 AM58 °FCool.1 mph95%30.11 "HgN/A
6:00 AM57 °FCool.1 mph95%30.11 "HgN/A
5:00 AM59 °FCool.1 mph93%30.10 "HgN/A
4:00 AM59 °FCool.2 mph97%30.08 "HgN/A
3:00 AM58 °FCool.1 mph98%30.08 "HgN/A
2:00 AM58 °FCool.No wind97%30.08 "HgN/A
1:00 AM60 °FCool.No wind95%30.08 "HgN/A
12:00 AM62 °FCool.1 mph92%30.07 "HgN/A
11:00 PM
Jul 28
65 °FMild.3 mph88%30.07 "HgN/A
10:00 PM67 °FMild.2 mph81%30.06 "HgN/A
9:00 PM71 °FMild.1 mph76%30.05 "HgN/A
8:00 PM78 °FWarm.1 mph66%30.03 "HgN/A
7:00 PM84 °FWarm.3 mph49%30.03 "HgN/A
6:00 PM85 °FWarm.5 mph44%30.04 "HgN/A
Weather by CustomWeather, © 2014

See weather overviewHow to use our weather pages